DW0487 Weather Reports


time (UTC)temp
F
wind
direction
speed
knots
gust
knots
rain 1hr
in
rain 24hr
in
rain mn
in
humidity
%
barometer
mb
20260506001508 45 230 0.0 0.9 0.00 0.00 0.00 82 1007.9
20260506000006 46 230 0.0 1.7 0.00 0.00 0.00 81 1008.0
20260505234503 47 174 0.9 2.6 0.00 0.00 0.00 81 1008.1
20260505233105 48 238 0.0 0.9 0.00 0.00 0.00 80 1008.1
20260505231612 48 238 0.0 1.7 0.00 0.00 0.00 79 1008.1
20260505230055 49 238 0.9 3.5 0.00 0.00 0.00 78 1008.0
20260505224555 50 288 0.0 2.6 0.00 0.00 0.00 76 1008.0
20260505223050 51 281 1.7 3.5 0.00 0.00 0.00 75 1008.1
20260505221547 52 26 1.7 5.2 0.00 0.00 0.00 75 1008.1
20260505220048 52 21 2.6 7.0 0.00 0.00 0.00 74 1008.0
20260505214554 53 54 6.1 9.6 0.00 0.00 0.00 73 1008.1
20260505213044 53 23 2.6 8.7 0.00 0.00 0.00 72 1008.1
20260505211542 54 49 5.2 11.3 0.00 0.00 0.00 71 1008.0
20260505210044 55 24 3.5 9.6 0.00 0.00 0.00 71 1008.0
20260505204541 54 47 4.3 10.4 0.00 0.00 0.00 73 1007.8
20260505203101 53 66 6.1 10.4 0.00 0.00 0.00 76 1007.5
20260505201545 53 60 2.6 7.0 0.00 0.00 0.00 76 1007.4
20260505200048 54 36 1.7 3.5 0.00 0.00 0.00 75 1007.1
20260505194540 54 12 0.9 3.5 0.00 0.00 0.00 74 1006.5
20260505193039 55 26 4.3 7.8 0.00 0.00 0.00 73 1006.1
20260505191540 56 24 4.3 7.8 0.00 0.00 0.00 72 1005.8
20260505190138 57 42 3.5 11.3 0.00 0.00 0.00 71 1005.5
20260505184549 58 36 3.5 7.8 0.00 0.00 0.00 69 1005.5
20260505183049 59 44 4.3 7.8 0.00 0.00 0.00 64 1005.5
20260505181549 61 28 1.7 4.3 0.00 0.00 0.00 55 1005.0
20260505180029 62 84 1.7 5.2 0.00 0.00 0.00 46 1004.8
20260505174538 63 17 0.9 3.5 0.00 0.00 0.00 45 1004.6
20260505173029 64 248 1.7 6.1 0.00 0.00 0.00 44 1004.5
20260505171527 63 114 0.9 5.2 0.00 0.00 0.00 46 1004.4
20260505170001 63 209 3.5 9.6 0.00 0.00 0.00 45 1004.3
20260505164501 64 194 4.3 10.4 0.00 0.00 0.00 45 1004.1
20260505163051 65 130 5.2 11.3 0.00 0.00 0.00 43 1004.2
20260505161601 66 240 6.1 13.0 0.00 0.00 0.00 44 1004.1
20260505153059 68 162 5.2 10.4 0.00 0.00 0.00 40 1004.3
20260505151558 68 192 3.5 9.6 0.00 0.00 0.00 40 1004.4
20260505124541 65 182 3.5 11.3 0.00 0.00 0.00 42 1004.9
20260505123040 65 248 6.1 13.9 0.00 0.00 0.00 40 1004.8
20260505121543 65 221 6.1 13.9 0.00 0.00 0.00 41 1004.7
20260505120043 65 255 5.2 10.4 0.00 0.00 0.00 42 1004.6
20260505114540 66 201 5.2 10.4 0.00 0.00 0.00 42 1004.7
20260505113041 66 227 5.2 13.0 0.00 0.00 0.00 42 1004.7
20260505111541 67 241 8.7 17.4 0.00 0.00 0.00 38 1004.7
20260505101539 69 235 0.9 7.0 0.00 0.00 0.00 35 1004.8
20260505100035 70 204 4.3 11.3 0.00 0.00 0.00 33 1004.8
20260505094536 71 204 4.3 9.6 0.00 0.00 0.00 33 1005.0
20260505093039 69 185 1.7 5.2 0.00 0.00 0.00 34 1005.1
20260505091529 68 252 3.5 6.1 0.00 0.00 0.00 36 1005.1
20260505090023 67 325 0.0 5.2 0.00 0.00 0.00 37 1005.2
20260505084520 66 250 2.6 7.0 0.00 0.00 0.00 40 1005.6
20260505083016 65 163 4.3 11.3 0.00 0.00 0.00 41 1005.9
20260505081516 64 205 6.1 13.9 0.00 0.00 0.00 39 1006.1
20260505080010 63 217 5.2 7.8 0.00 0.00 0.00 43 1006.4
20260505074509 63 194 3.5 12.2 0.00 0.00 0.00 44 1006.5
20260505073008 63 138 6.1 11.3 0.00 0.00 0.00 44 1006.6
20260505071503 61 176 4.3 13.0 0.00 0.00 0.00 49 1006.8
20260505070100 55 157 5.2 8.7 0.00 0.00 0.00 60 1007.1
20260505064559 51 51 1.7 3.5 0.00 0.00 0.00 80 1007.1
20260505063054 48 45 0.0 1.7 0.00 0.00 0.00 83 1007.5
20260505061554 47 57 0.0 0.0 0.00 0.00 0.00 86 1007.7
20260505060052 46 12 0.0 3.5 0.00 0.00 0.00 87 1007.6
20260505054552 44 70 0.0 2.6 0.00 0.00 0.00 89 1007.6
20260505053057 43 13 0.9 2.6 0.00 0.00 0.00 90 1007.5
20260505051545 41 97 0.0 2.6 0.00 0.00 0.00 89 1007.7
20260505041533 40 209 0.0 3.5 0.00 0.00 0.00 86 1008.0
20260505040031 40 61 0.0 0.0 0.00 0.00 0.00 86 1008.0
20260505034530 41 188 0.0 0.0 0.00 0.00 0.00 86 1007.9
20260505033039 41 192 0.0 0.0 0.00 0.00 0.00 85 1008.1
20260505031526 41 119 0.0 2.6 0.00 0.00 0.00 85 1008.1
20260505030027 42 277 0.0 2.6 0.00 0.00 0.00 84 1008.4
20260505024522 42 80 1.7 3.5 0.00 0.00 0.00 84 1008.4
20260505023021 42 184 0.0 2.6 0.00 0.00 0.00 83 1008.6
20260505021517 43 307 0.0 1.7 0.00 0.00 0.00 83 1008.6
20260505020016 43 243 0.0 1.7 0.00 0.00 0.00 82 1008.6
20260505014516 44 17 0.0 0.0 0.00 0.00 0.00 81 1008.8
20260505013011 44 100 0.9 2.6 0.00 0.00 0.00 81 1008.8
20260505011508 45 232 1.7 4.3 0.00 0.00 0.00 79 1008.9
20260505010005 46 248 0.0 1.7 0.00 0.00 0.00 77 1009.1
20260505004507 47 293 0.0 2.6 0.00 0.00 0.00 76 1009.2
20260505003103 47 99 0.0 0.9 0.00 0.00 0.00 75 1009.3